Terminal Aerodrome Forecast
Issued by NWS

Home | Current Version | Previous Version | Text Only | Print | Product List | Glossary On
Versions: 1 2 3 4 5 6 7 8 9 10 11 12 13 14 15 16 17 18 19 20 21 22 23 24 25 26 27 28 29 30 31 32 33
180
FTUS41 KOKX 301432 AAA
TAFTEB
TAF AMD
KTEB 301432Z 3015/3112 06004KT P6SM FEW025 BKN120
     FM302000 16006KT P6SM VCSH SCT040 BKN120
     FM310000 16003KT 6SM -SHRA SCT020 BKN050
     FM310800 14004KT 5SM -SHRA BR BKN020 BKN050=

USA.gov is the U.S. government's official web portal to all federal, state and local government web resources and services.